Location: La Brionne
(46.1728°N, 1.7849°E)
Time: 06:26:27
(UTC+00:00)

Cosmos 1503 Rocket - Pass Details

Date: 16 June 2021
Orbit: 752 x 791 km, 74.0° (Epoch: 02 August)

Event Time Altitude Azimuth Distance (km) Brightness Sun altitude
Rises 23:09:36 0° 338° (NNW) 3,299 8.8 -19.7°
Reaches altitude 10° 23:12:00 10° 338° (NNW) 2,366 7.7 -19.8°
Maximum altitude 23:17:25 88° 248° (WSW) 798 4.0 -20.0°
Enters shadow 23:19:25 40° 161° (SSE) 1,148 4.4 -20.0°
